sat.trackr.live / text

‹ back to catalog

STARLINK-34075

NORAD 63917 · 2025-095AD

PAYLOAD ACTIVE UNKNOWN

§ Identity

Operator
Country
US
Launch date
2025-05-10
Launch site
AFETR
Launch vehicle
Mass (kg)
RCS (m²)

Purposes: comms

External: N2YO · Heavens-Above · Gunter

§ Orbital elements

Epoch: 2026-09-20T02:32:26.123424Z

Period
94.27 min
Inclination
43.0023°
Eccentricity
0.0001593
Mean motion
15.27582276 rev/d
Perigee alt
481.9 km
Apogee alt
484.1 km
Semi-major
6,861.2 km
B*
6.2934e-4
RAAN
158.0444°
Arg perigee
267.8223°
Mean anomaly
92.2446°
Rev number
7,751

§ Raw data

STARLINK-340751 63917U 25095AD  26263.10585791  .00017097  00000+0  62934-3 0  99922 63917  43.0023 158.0444 0001593 267.8223  92.2446 15.27582276 77516

JSON: /api/v1/satellites/63917 · /tle

For live sub-satellite position, see the globe view (requires WebGL).

§ Visibility from observer

Set your observer location to see the next 7 days of passes ≥ 10°. The values pass through the URL so the page stays shareable.

No JS? Fill the form by hand. The geolocation button needs JavaScript.